Date String (YYYY-MM-DD hh:mm:ss) UTC,Instrument flags,absolute air pressure of the measurement (hPa),sample flow rate (lpm),inlet stack bypass flow (lpm),air temperature of the measurement (°C),ambient temperature measured by the external sensor (°C),aerosol sample conditioner tube jacket temperature (°C),OPC LED temperature (°C),internal box temperature (°C),relative humidity of the measurement (%),span deviation,mass concentration of particles derived from Lorenz-Mie calculation of OPC scattering (μg/m³),mass concentration of particles derived from Lorenz-Mie calculation of OPC scattering (μg/m³),mass concentration of particles derived from Lorenz-Mie calculation of OPC scattering (μg/m³)
DateTimeUTC,F1_M11,P_M11,Q1_M11,Q2_M11,T1_M11,T2_M11,T3_M11,T4_M11,T5_M11,U1_M11,ZSPAN_M11,X0_M11,X2_M11,X1_M11
2023-07-07 01:00:00,SystemResetWarning,0831.3,5.01,000.00,032.4,026.7,000.0,040.2,031.5,34.4,-000.6,0014.45,0008.28,0007.92
2023-07-07 01:01:00,SystemResetWarning,0831.3,5.00,000.00,032.3,027.1,000.0,040.2,031.6,34.5,-000.9,0014.54,0008.21,0007.86
2023-07-07 01:02:00,SystemResetWarning,0831.3,4.97,000.00,032.3,027.4,000.0,040.2,031.7,34.9,-001.1,0015.09,0008.21,0007.83
2023-07-07 01:03:00,SystemResetWarning,0831.3,5.03,000.00,032.3,027.6,000.0,040.2,031.8,35.3,-000.7,0015.15,0008.21,0007.82
2023-07-07 01:04:00,SystemResetWarning,0831.3,4.99,000.00,032.4,027.9,000.0,040.2,031.9,35.5,-000.3,0015.18,0008.27,0007.82
2023-07-07 01:05:00,SystemResetWarning,0831.3,5.02,000.00,032.7,028.1,000.0,040.2,032.1,34.8,-000.3,0014.77,0008.30,0007.83
2023-07-07 01:06:00,SystemResetWarning,0831.4,4.97,000.00,032.9,028.3,000.0,040.2,032.2,34.0,-000.3,0014.96,0008.36,0007.86
2023-07-07 01:07:00,SystemResetWarning,0831.3,5.02,000.00,033.0,028.4,000.0,040.3,032.2,33.4,-000.3,0015.18,0008.40,0007.90
2023-07-07 01:08:00,SystemResetWarning,0831.3,5.01,000.00,033.1,028.3,000.0,040.3,032.2,33.4,-000.5,0014.20,0008.41,0007.93
2023-07-07 01:09:00,SystemResetWarning,0831.4,4.98,000.00,033.2,026.9,000.0,040.3,032.1,33.2,-000.3,0013.74,0008.43,0007.95
2023-07-07 01:10:00,SystemResetWarning,0831.3,5.01,000.00,033.1,025.4,000.0,040.2,031.9,33.0,-000.4,0013.34,0008.42,0007.93
2023-07-07 01:11:00,SystemResetWarning,0831.3,5.00,000.00,033.0,025.1,000.0,040.2,031.7,33.4,-000.6,0012.84,0008.43,0007.92
2023-07-07 01:12:00,SystemResetWarning,0831.3,5.01,000.00,032.8,025.4,000.0,040.2,031.4,33.6,-000.6,0013.04,0008.46,0007.92
2023-07-07 01:13:00,SystemResetWarning,0831.3,5.01,000.00,032.6,025.8,000.0,040.3,031.4,33.9,-000.5,0012.50,0008.46,0007.92
2023-07-07 01:14:00,SystemResetWarning,0831.3,4.99,000.00,032.5,026.3,000.0,040.3,031.5,34.2,-000.8,0012.40,0008.45,0007.89
2023-07-07 01:15:00,SystemResetWarning,0831.3,5.00,000.00,032.4,026.7,000.0,040.3,031.6,34.8,-001.0,0012.43,0008.47,0007.89
2023-07-07 01:16:00,SystemResetWarning,0831.3,5.00,000.00,032.4,027.1,000.0,040.3,031.7,34.9,-000.9,0012.33,0008.47,0007.89
2023-07-07 01:17:00,SystemResetWarning,0831.3,4.99,000.00,032.3,027.4,000.0,040.3,031.7,35.0,-000.8,0012.28,0008.45,0007.87
2023-07-07 01:18:00,SystemResetWarning,0831.3,5.00,000.00,032.4,027.7,000.0,040.3,031.8,34.7,-000.7,0012.01,0008.45,0007.86
2023-07-07 01:19:00,SystemResetWarning,0831.3,5.00,000.00,032.4,027.9,000.0,040.3,031.9,34.6,-000.3,0012.11,0008.49,0007.88
2023-07-07 01:20:00,SystemResetWarning,0831.3,5.01,000.00,032.4,028.1,000.0,040.3,032.0,34.6,-000.2,0012.17,0008.50,0007.91
2023-07-07 01:21:00,SystemResetWarning,0831.3,4.98,000.00,032.4,028.3,000.0,040.3,032.0,34.5,-000.1,0012.21,0008.56,0007.96
2023-07-07 01:22:00,SystemResetWarning,0831.3,5.01,000.00,032.4,028.4,000.0,040.3,032.0,34.5,-000.0,0012.27,0008.62,0008.01
2023-07-07 01:23:00,SystemResetWarning,0831.3,5.00,000.00,032.4,028.3,000.0,040.3,032.1,34.4,0000.1,0012.10,0008.63,0008.06
2023-07-07 01:24:00,SystemResetWarning,0831.3,4.98,000.00,032.4,026.8,000.0,040.2,032.0,34.5,0000.2,0012.31,0008.68,0008.10
2023-07-07 01:25:00,SystemResetWarning,0831.3,5.01,000.00,032.3,025.9,000.0,040.0,031.9,34.7,0000.3,0012.69,0008.71,0008.16
2023-07-07 01:26:00,SystemResetWarning,0831.3,4.99,000.00,032.2,025.9,000.0,040.0,031.6,34.9,0000.3,0012.67,0008.71,0008.18
2023-07-07 01:27:00,SystemResetWarning,0831.3,5.02,000.00,032.0,026.2,000.0,040.1,031.5,34.9,0000.1,0012.85,0008.72,0008.19
2023-07-07 01:28:00,SystemResetWarning,0831.2,5.00,000.00,032.0,026.6,000.0,040.1,031.6,35.0,-000.0,0012.91,0008.73,0008.22
2023-07-07 01:29:00,SystemResetWarning,0831.3,5.01,000.00,032.2,027.0,000.0,040.1,031.8,34.8,-000.3,0012.81,0008.73,0008.25
2023-07-07 01:30:00,SystemResetWarning,0831.3,4.98,000.00,032.3,027.3,000.0,040.1,031.9,34.8,-000.6,0013.10,0008.78,0008.28
2023-07-07 01:31:00,SystemResetWarning,0831.3,5.02,000.00,032.3,027.6,000.0,040.1,031.9,34.7,-000.7,0013.19,0008.86,0008.33
2023-07-07 01:32:00,SystemResetWarning,0831.3,4.99,000.00,032.3,027.8,000.0,040.1,031.9,34.6,-000.6,0013.31,0008.93,0008.36
2023-07-07 01:33:00,SystemResetWarning,0831.3,4.99,000.00,032.3,028.1,000.0,040.1,031.9,34.4,-000.6,0013.29,0008.96,0008.37
2023-07-07 01:34:00,SystemResetWarning,0831.3,5.02,000.00,032.3,028.2,000.0,040.2,032.0,34.0,-000.7,0013.39,0008.96,0008.37
2023-07-07 01:35:00,SystemResetWarning,0831.4,5.01,000.00,032.3,028.4,000.0,040.2,032.0,33.9,-000.9,0013.11,0008.91,0008.33
2023-07-07 01:36:00,SystemResetWarning,0831.3,5.00,000.00,032.3,028.0,000.0,040.2,032.1,34.0,-000.7,0012.89,0008.83,0008.27
2023-07-07 01:37:00,SystemResetWarning,0831.3,4.99,000.00,032.3,026.5,000.0,040.0,032.0,34.2,-000.7,0013.15,0008.77,0008.23
2023-07-07 01:38:00,SystemResetWarning,0831.3,5.00,000.00,032.2,025.8,000.0,039.9,031.8,34.3,-000.6,0012.89,0008.73,0008.19
2023-07-07 01:39:00,SystemResetWarning,0831.3,5.00,000.00,032.0,025.9,000.0,039.9,031.5,34.8,-000.5,0012.88,0008.71,0008.15
2023-07-07 01:40:00,SystemResetWarning,0831.2,5.00,000.00,031.9,026.3,000.0,040.0,031.5,35.4,-000.5,0012.88,0008.69,0008.11
2023-07-07 01:41:00,SystemResetWarning,0831.2,5.01,000.00,032.0,026.7,000.0,040.0,031.6,35.2,-000.4,0012.52,0008.61,0008.07
2023-07-07 01:42:00,SystemResetWarning,0831.3,5.00,000.00,032.3,027.0,000.0,040.0,031.8,34.7,-000.6,0012.48,0008.58,0008.03
2023-07-07 01:43:00,SystemResetWarning,0831.3,4.99,000.00,032.4,027.4,000.0,040.0,031.9,34.1,-000.7,0012.45,0008.53,0008.00
2023-07-07 01:44:00,SystemResetWarning,0831.3,5.00,000.00,032.5,027.6,000.0,040.0,032.0,33.6,-000.8,0012.52,0008.53,0008.01
2023-07-07 01:45:00,SystemResetWarning,0831.3,5.01,000.00,032.5,027.9,000.0,040.1,032.0,33.2,-000.9,0012.75,0008.54,0008.00
2023-07-07 01:46:00,SystemResetWarning,0831.3,4.99,000.00,032.5,028.1,000.0,040.1,032.0,32.5,-000.9,0012.79,0008.51,0008.00
2023-07-07 01:47:00,SystemResetWarning,0831.3,5.00,000.00,032.5,028.2,000.0,040.2,032.0,32.2,-000.8,0012.63,0008.49,0007.99
2023-07-07 01:48:00,SystemResetWarning,0831.3,5.02,000.00,032.5,028.4,000.0,040.2,032.0,32.3,-000.9,0012.09,0008.47,0007.96
2023-07-07 01:49:00,SystemResetWarning,0831.3,4.98,000.00,032.5,027.7,000.0,040.2,032.0,31.9,-000.8,0012.56,0008.43,0007.93
2023-07-07 01:50:00,SystemResetWarning,0831.3,5.00,000.00,032.5,025.9,000.0,040.1,031.8,31.3,-000.9,0012.45,0008.34,0007.88
2023-07-07 01:51:00,SystemResetWarning,0831.3,5.00,000.00,032.4,025.0,000.0,040.0,031.6,32.2,-000.7,0012.81,0008.31,0007.82
2023-07-07 01:52:00,SystemResetWarning,0831.3,5.01,000.00,032.2,025.0,000.0,039.9,031.4,33.0,-000.5,0013.31,0008.30,0007.77
2023-07-07 01:53:00,SystemResetWarning,0831.4,5.00,000.00,032.0,025.4,000.0,040.0,031.2,33.5,-000.1,0013.67,0008.22,0007.70
2023-07-07 01:54:00,SystemResetWarning,0831.3,5.00,000.00,031.8,025.9,000.0,040.0,031.3,34.3,0000.1,0013.51,0008.14,0007.61
2023-07-07 01:55:00,SystemResetWarning,0831.3,5.01,000.00,031.8,026.4,000.0,040.0,031.3,34.4,0000.0,0013.27,0008.02,0007.52
2023-07-07 01:56:00,SystemResetWarning,0831.3,4.99,000.00,031.7,026.8,000.0,040.0,031.4,33.2,-000.1,0012.93,0007.98,0007.47
2023-07-07 01:57:00,SystemResetWarning,0831.3,4.99,000.00,031.6,027.1,000.0,039.9,031.5,33.0,0000.2,0012.86,0007.99,0007.46
2023-07-07 01:58:00,SystemResetWarning,0831.3,5.01,000.00,031.6,027.4,000.0,039.9,031.5,32.6,0000.5,0012.79,0007.99,0007.46
2023-07-07 01:59:00,SystemResetWarning,0831.3,5.01,000.00,031.5,027.7,000.0,039.9,031.6,32.9,0000.5,0012.69,0007.95,0007.44
